FW0869 Weather Reports


time (UTC)temp
F
wind
direction
speed
knots
gust
knots
rain 1hr
in
rain 24hr
in
rain mn
in
humidity
%
barometer
mb
20260505140642 34 108 4.3 8.7 0.02 0.30 0.13 93 1017.0
20260505140602 34 348 4.3 8.7 0.02 0.30 0.13 93 1017.0
20260505140502 34 331 5.2 8.7 0.02 0.30 0.13 93 1017.0
20260505140404 34 351 4.3 8.7 0.02 0.30 0.13 93 1016.8
20260505140157 34 346 4.3 8.7 0.01 0.29 0.13 94 1016.8
20260505140136 34 340 4.3 8.7 0.01 0.29 0.12 94 1017.0
20260505130232 34 328 5.2 11.3 0.01 0.28 0.11 93 1016.6
20260505130225 34 325 5.2 11.3 0.01 0.28 0.11 93 1016.5
20260505124821 34 328 4.3 10.4 0.02 0.28 0.11 93 1016.1
20260505124727 34 321 4.3 10.4 0.02 0.28 0.11 93 1016.1
20260505124720 34 342 3.5 10.4 0.02 0.28 0.11 93 1016.0
20260505124520 34 350 3.5 10.4 0.02 0.28 0.11 93 1016.0
20260505124421 34 325 3.5 10.4 0.02 0.28 0.11 93 1016.0
20260505124320 34 346 2.6 7.8 0.02 0.28 0.11 93 1016.0
20260505124221 34 329 2.6 7.8 0.02 0.28 0.11 93 1016.0
20260505124113 34 15 2.6 7.8 0.02 0.28 0.11 93 1015.9
20260505124021 34 329 2.6 7.8 0.02 0.28 0.11 93 1015.9
20260505123921 34 5 2.6 7.8 0.02 0.28 0.11 93 1016.0
20260505123820 34 331 2.6 7.8 0.02 0.28 0.11 93 1016.0
20260505123721 34 0 2.6 7.8 0.02 0.28 0.11 93 1016.0
20260505123614 34 336 2.6 7.8 0.02 0.28 0.11 93 1016.0
20260505123527 34 0 3.5 7.8 0.02 0.28 0.11 93 1016.0
20260505123320 34 319 3.5 7.8 0.01 0.27 0.11 93 1015.9
20260505123220 34 340 3.5 7.8 0.01 0.27 0.10 93 1015.9
20260505123114 34 351 4.3 7.8 0.01 0.27 0.10 93 1015.8
20260505123020 34 9 4.3 7.8 0.01 0.27 0.10 93 1015.8
20260505122916 34 341 4.3 7.8 0.02 0.27 0.10 93 1015.8
20260505122816 34 313 4.3 7.8 0.02 0.27 0.10 93 1015.8
20260505122728 34 335 4.3 8.7 0.02 0.27 0.10 93 1015.8
20260505122721 34 331 4.3 9.6 0.02 0.27 0.10 93 1015.8
20260505122516 34 319 4.3 9.6 0.02 0.27 0.10 93 1015.9
20260505122417 34 338 4.3 9.6 0.02 0.27 0.10 93 1015.9
20260505122317 34 344 4.3 9.6 0.02 0.27 0.10 93 1015.9
20260505122217 34 355 4.3 9.6 0.02 0.27 0.10 93 1015.9
20260505122116 34 316 4.3 9.6 0.02 0.27 0.10 93 1015.9
20260505122016 34 327 4.3 9.6 0.02 0.27 0.10 93 1015.9
20260505121916 34 326 4.3 9.6 0.02 0.27 0.10 93 1015.9
20260505121823 34 334 4.3 9.6 0.03 0.27 0.10 93 1015.9
20260505121616 34 343 5.2 8.7 0.03 0.27 0.10 93 1015.9
20260505121516 34 19 5.2 8.7 0.03 0.27 0.10 93 1015.9
20260505121416 34 355 5.2 8.7 0.03 0.27 0.10 92 1015.9
20260505121316 34 342 5.2 8.7 0.03 0.27 0.10 92 1015.9
20260505121216 34 323 5.2 8.7 0.03 0.27 0.10 93 1015.8
20260505121117 34 296 5.2 8.7 0.04 0.27 0.10 93 1015.8
20260505121011 34 305 5.2 8.7 0.04 0.27 0.10 93 1015.9
20260505120912 34 311 5.2 10.4 0.04 0.27 0.10 92 1015.8
20260505120812 34 355 5.2 10.4 0.04 0.27 0.10 92 1015.8
20260505120711 35 309 4.3 10.4 0.04 0.27 0.10 92 1015.8
20260505120613 35 301 4.3 10.4 0.04 0.27 0.10 92 1015.8
20260505120513 35 327 4.3 10.4 0.04 0.27 0.10 92 1015.8
20260505120412 35 334 4.3 10.4 0.04 0.27 0.10 92 1015.8
20260505120319 35 333 4.3 10.4 0.04 0.27 0.10 92 1015.6
20260505120112 35 320 4.3 10.4 0.04 0.27 0.10 92 1015.8
20260505120013 35 336 4.3 10.4 0.04 0.27 0.10 92 1015.8
20260505115912 35 346 4.3 10.4 0.04 0.27 0.10 92 1015.8
20260505115812 35 0 4.3 10.4 0.04 0.27 0.10 92 1015.8
20260505115712 35 9 4.3 10.4 0.04 0.27 0.10 92 1015.8
20260505115619 35 340 5.2 10.4 0.05 0.27 0.10 92 1015.6
20260505115412 35 5 5.2 10.4 0.05 0.27 0.10 92 1015.8
20260505115312 35 355 5.2 10.4 0.04 0.26 0.09 92 1015.8
20260505115214 35 325 5.2 10.4 0.04 0.26 0.09 92 1015.8
20260505115112 35 331 5.2 10.4 0.04 0.26 0.09 92 1015.8
20260505115108 35 329 5.2 10.4 0.04 0.26 0.09 92 1015.8
20260505115015 35 329 5.2 10.4 0.04 0.26 0.09 92 1015.8
20260505114808 35 350 5.2 10.4 0.04 0.26 0.09 92 1015.6
20260505114719 35 311 5.2 10.4 0.04 0.26 0.09 92 1015.6
20260505114712 35 340 5.2 10.4 0.04 0.26 0.09 92 1015.5
20260505114509 35 24 5.2 10.4 0.04 0.26 0.09 92 1015.5
20260505114409 35 5 5.2 12.2 0.04 0.26 0.09 92 1015.4
20260505114309 35 345 5.2 12.2 0.04 0.26 0.09 92 1015.5
20260505114219 35 0 5.2 12.2 0.04 0.26 0.09 92 1015.5
20260505114212 35 9 5.2 13.9 0.04 0.26 0.09 92 1015.5
20260505114009 35 311 6.1 13.9 0.04 0.26 0.09 92 1015.5
20260505113908 35 331 6.1 13.9 0.04 0.26 0.09 92 1015.6
20260505113808 35 329 6.1 13.9 0.04 0.26 0.09 92 1015.6
20260505113708 35 355 6.1 13.9 0.04 0.26 0.09 92 1015.6
20260505113628 35 11 6.1 13.9 0.04 0.26 0.09 92 1015.6
20260505113624 35 318 6.1 13.9 0.04 0.26 0.09 92 1015.6
20260505113308 35 333 6.1 13.9 0.04 0.26 0.09 92 1015.6
20260505113205 35 355 6.1 13.9 0.04 0.26 0.09 92 1015.6
20260505113110 35 19 6.1 12.2 0.04 0.26 0.09 92 1015.5
20260505113104 35 314 6.1 12.2 0.04 0.26 0.09 92 1015.5
20260505113004 35 341 6.1 12.2 0.04 0.25 0.08 92 1015.5
20260505112911 35 312 7.0 12.2 0.04 0.25 0.08 92 1015.5
20260505112704 35 9 7.0 12.2 0.04 0.25 0.08 92 1015.5
20260505112617 35 5 7.0 12.2 0.04 0.25 0.08 92 1015.5
20260505112612 35 0 7.0 12.2 0.04 0.25 0.08 92 1015.5
20260505112406 36 301 7.0 12.2 0.04 0.25 0.08 92 1015.5
20260505112305 36 0 7.0 12.2 0.04 0.25 0.08 91 1015.4
20260505112223 36 319 7.0 12.2 0.04 0.25 0.08 91 1015.5
20260505112215 36 355 7.0 16.5 0.04 0.25 0.08 91 1015.4
20260505111905 36 0 7.8 16.5 0.05 0.25 0.08 91 1015.4
20260505111804 36 331 7.8 16.5 0.04 0.24 0.08 91 1015.4
20260505111723 36 5 7.8 16.5 0.04 0.24 0.07 91 1015.4
20260505111716 36 317 8.7 19.1 0.04 0.24 0.07 90 1015.4
20260505111404 36 21 8.7 19.1 0.04 0.24 0.07 90 1015.4
20260505111258 37 355 8.7 19.1 0.04 0.24 0.07 90 1015.4
20260505111158 37 355 9.6 19.1 0.04 0.24 0.07 90 1015.4
20260505111107 37 331 8.7 19.1 0.03 0.23 0.07 91 1015.3
20260505111058 37 331 8.7 19.1 0.03 0.23 0.07 91 1015.3
20260505110959 37 9 8.7 19.1 0.03 0.23 0.06 91 1015.3
20260505110859 38 342 8.7 19.1 0.03 0.23 0.06 91 1015.3
20260505110753 38 13 8.7 19.1 0.03 0.23 0.06 91 1015.3
20260505110651 38 18 8.7 19.1 0.03 0.23 0.06 92 1015.3
20260505110608 38 355 8.7 16.5 0.03 0.23 0.06 92 1015.3
20260505110551 38 42 7.8 15.6 0.03 0.23 0.06 92 1015.2
20260505110450 38 22 7.8 15.6 0.03 0.23 0.06 92 1015.2
20260505110350 38 30 7.8 15.6 0.03 0.23 0.06 92 1015.2
20260505110245 38 9 7.0 15.6 0.03 0.23 0.06 92 1015.2
20260505110144 38 355 7.0 15.6 0.03 0.23 0.06 92 1015.2
20260505110105 38 355 7.0 15.6 0.03 0.23 0.06 92 1015.2
20260505102212 39 22 8.7 17.4 0.04 0.21 0.04 92 1014.5
20260505102109 39 338 8.7 17.4 0.04 0.21 0.04 92 1014.5
20260505102059 39 347 8.7 17.4 0.04 0.21 0.04 92 1014.5
20260505102011 39 355 8.7 17.4 0.04 0.21 0.04 92 1014.3
20260505101802 39 11 8.7 15.6 0.03 0.20 0.03 92 1014.2
20260505101713 39 342 8.7 15.6 0.03 0.20 0.03 92 1014.3
20260505101706 39 326 8.7 15.6 0.03 0.20 0.03 92 1014.2
20260505101458 39 315 8.7 15.6 0.03 0.20 0.03 92 1014.2
20260505101356 39 13 8.7 15.6 0.03 0.20 0.03 92 1014.2
20260505101255 40 348 8.7 15.6 0.03 0.20 0.03 92 1014.2
20260505101156 40 328 8.7 15.6 0.03 0.20 0.03 92 1014.2
20260505101056 40 300 8.7 15.6 0.03 0.20 0.03 92 1014.3
20260505100952 40 15 8.7 15.6 0.03 0.20 0.03 92 1014.3
20260505100852 40 5 9.6 15.6 0.03 0.20 0.03 92 1014.3
20260505100751 40 0 9.6 15.6 0.03 0.20 0.03 92 1014.3
20260505100650 40 309 8.7 14.8 0.03 0.20 0.03 92 1014.3
20260505100550 40 342 9.6 14.8 0.03 0.20 0.03 92 1014.3
20260505100444 40 348 9.6 17.4 0.03 0.20 0.03 92 1014.2
20260505100344 40 345 9.6 17.4 0.03 0.20 0.03 92 1014.2
20260505100244 40 34 9.6 17.4 0.03 0.20 0.03 91 1014.2
20260505100145 40 13 9.6 17.4 0.03 0.20 0.03 91 1014.2
20260505100044 40 14 9.6 17.4 0.03 0.20 0.03 92 1014.2
20260505095945 40 5 9.6 17.4 0.03 0.20 0.03 92 1014.1
20260505095745 40 336 9.6 17.4 0.03 0.20 0.03 92 1014.1
20260505095538 40 5 8.7 17.4 0.03 0.20 0.03 92 1014.1
20260505095433 40 343 8.7 17.4 0.03 0.20 0.03 92 1014.0
20260505095332 40 22 8.7 17.4 0.03 0.20 0.03 92 1014.0
20260505095232 40 9 8.7 17.4 0.03 0.20 0.03 92 1014.0
20260505095132 40 349 7.8 17.4 0.03 0.20 0.03 92 1014.0
20260505095046 40 307 7.8 17.4 0.03 0.20 0.03 92 1014.0
20260505094627 41 17 8.7 15.6 0.02 0.19 0.02 92 1013.9
20260505094526 41 355 8.7 15.6 0.02 0.19 0.02 92 1013.9
20260505094420 41 297 8.7 15.6 0.02 0.19 0.02 92 1013.9
20260505094320 41 355 8.7 15.6 0.02 0.19 0.02 92 1014.0
20260505094220 41 319 8.7 15.6 0.02 0.19 0.02 92 1014.0
20260505094120 41 348 8.7 15.6 0.02 0.19 0.02 92 1013.9
20260505094020 41 346 8.7 15.6 0.02 0.19 0.02 92 1013.9
20260505093914 41 5 8.7 15.6 0.02 0.19 0.02 92 1013.9
20260505093822 41 333 8.7 15.6 0.02 0.19 0.02 92 1014.0
20260505093614 41 355 7.8 15.6 0.02 0.19 0.02 91 1013.9
20260505093513 41 296 7.8 14.8 0.02 0.19 0.02 91 1013.9
20260505093409 41 294 7.8 14.8 0.02 0.19 0.02 91 1013.9
20260505093308 41 355 7.8 16.5 0.02 0.19 0.02 91 1014.0
20260505093226 41 9 7.8 16.5 0.02 0.19 0.02 91 1014.0
20260505093219 41 315 7.8 16.5 0.02 0.19 0.02 91 1014.0
20260505092902 41 337 7.8 16.5 0.01 0.18 0.01 91 1013.9
20260505092802 41 268 7.8 16.5 0.01 0.18 0.01 91 1014.0
20260505092702 41 62 7.8 16.5 0.01 0.18 0.01 91 1014.0
20260505092612 41 334 7.8 16.5 0.00 0.17 0.01 91 1014.0
20260505092501 41 309 7.8 16.5 0.00 0.17 0.00 91 1013.9
20260505092356 41 327 7.8 16.5 0.00 0.17 0.00 91 1014.0
20260505092256 41 319 7.8 14.8 0.00 0.17 0.00 91 1014.0
20260505092155 41 333 7.8 14.8 0.00 0.17 0.00 91 1014.1
20260505092056 41 0 7.8 14.8 0.00 0.17 0.00 90 1014.0
20260505091955 41 33 7.8 13.9 0.00 0.17 0.00 90 1014.0
20260505091850 41 317 7.8 13.9 0.00 0.17 0.00 90 1014.0
20260505091751 41 339 7.8 14.8 0.00 0.17 0.00 90 1014.0
20260505091650 41 342 7.8 14.8 0.00 0.17 0.00 90 1014.0
20260505091549 41 355 7.8 14.8 0.00 0.17 0.00 90 1014.0
20260505091450 41 298 8.7 14.8 0.00 0.17 0.00 90 1014.0
20260505091345 41 331 8.7 14.8 0.00 0.17 0.00 90 1014.0
20260505091244 41 270 9.6 14.8 0.00 0.17 0.00 90 1013.9
20260505091203 41 32 9.6 14.8 0.00 0.17 0.00 90 1013.9
20260505090945 41 335 9.6 14.8 0.00 0.17 0.00 90 1013.7
20260505090738 41 339 9.6 17.4 0.00 0.17 0.00 90 1013.6
20260505090638 41 343 9.6 17.4 0.00 0.17 0.00 90 1013.6
20260505090538 41 281 8.7 17.4 0.00 0.17 0.00 90 1013.6
20260505090438 41 329 7.8 17.4 0.00 0.17 0.00 90 1013.6
20260505090332 41 329 7.8 17.4 0.00 0.17 0.00 90 1013.5
20260505090231 41 308 7.8 17.4 0.00 0.17 0.00 90 1013.5
20260505090131 41 309 7.0 17.4 0.00 0.17 0.00 90 1013.5
20260505090033 41 13 7.0 17.4 0.00 0.17 0.00 90 1013.5
20260505085932 41 331 7.0 17.4 0.00 0.17 0.00 90 1013.5
20260505085828 41 329 7.0 14.8 0.00 0.17 0.00 90 1013.6
20260505085726 41 346 7.0 13.9 0.00 0.17 0.00 90 1013.6
20260505085627 42 9 7.8 13.9 0.00 0.17 0.00 90 1013.6
20260505085536 41 0 7.8 13.9 0.00 0.17 0.00 90 1013.5
20260505085530 42 0 8.7 13.9 0.00 0.17 0.00 90 1013.5
20260505085327 41 315 8.7 13.9 0.00 0.17 0.00 90 1013.6
20260505085119 42 326 8.7 14.8 0.00 0.17 0.00 90 1013.6
20260505085034 42 325 8.7 14.8 0.00 0.17 0.00 90 1013.7
20260505084923 42 302 8.7 14.8 0.00 0.17 0.00 89 1013.7
20260505084721 42 321 8.7 14.8 0.00 0.17 0.00 89 1013.7
20260505084525 42 329 7.8 14.8 0.00 0.17 0.00 89 1013.7
20260505084519 42 0 7.0 14.8 0.00 0.17 0.00 89 1013.6
20260505084308 42 329 7.0 14.8 0.00 0.17 0.00 89 1013.7
20260505084208 42 326 6.1 13.0 0.00 0.17 0.00 89 1013.7
20260505084108 42 323 6.1 13.0 0.00 0.17 0.00 89 1013.6
20260505084009 42 355 5.2 10.4 0.00 0.17 0.00 89 1013.6
20260505083907 42 311 5.2 10.4 0.00 0.17 0.00 89 1013.7
20260505083802 42 355 5.2 10.4 0.00 0.17 0.00 89 1013.6
20260505083701 42 311 5.2 10.4 0.00 0.17 0.00 89 1013.6
20260505083608 42 340 5.2 14.8 0.00 0.17 0.00 89 1013.6
20260505083401 42 339 6.1 14.8 0.00 0.17 0.00 89 1013.7
20260505083257 42 309 6.1 14.8 0.00 0.17 0.00 89 1013.7
20260505083204 42 325 6.1 14.8 0.00 0.17 0.00 89 1013.7
20260505083007 42 349 7.0 14.8 0.00 0.17 0.00 89 1013.7
20260505083000 42 343 7.8 14.8 0.00 0.17 0.00 89 1013.7
20260505082751 43 329 7.8 14.8 0.00 0.17 0.00 89 1013.7
20260505082651 43 315 7.8 14.8 0.00 0.17 0.00 89 1013.7
20260505082550 43 350 7.0 14.8 0.00 0.17 0.00 89 1013.7
20260505082502 43 299 7.0 14.8 0.00 0.17 0.00 89 1013.9
20260505082351 43 5 7.0 14.8 0.00 0.17 0.00 89 1013.9
20260505082243 43 348 6.1 14.8 0.00 0.17 0.00 89 1013.9
20260505082144 43 340 7.0 14.8 0.00 0.17 0.00 89 1013.7
20260505082053 43 346 7.0 15.6 0.00 0.17 0.00 89 1013.7
20260505081843 43 346 6.1 15.6 0.00 0.17 0.00 89 1013.9
20260505081738 44 355 7.0 15.6 0.00 0.17 0.00 89 1013.9
20260505081645 44 17 6.1 15.6 0.00 0.17 0.00 89 1013.9
20260505081439 44 355 7.0 17.4 0.00 0.17 0.00 89 1013.9
20260505081338 44 0 7.0 17.4 0.00 0.17 0.00 89 1013.9
20260505081234 44 290 7.0 17.4 0.00 0.17 0.00 89 1013.9
20260505081139 44 5 7.0 17.4 0.00 0.17 0.00 89 1013.9
20260505080932 45 305 7.0 17.4 0.00 0.17 0.00 89 1013.9
20260505080831 45 343 6.1 17.4 0.00 0.17 0.00 89 1013.9
20260505080739 45 355 5.2 17.4 0.00 0.17 0.00 91 1014.0
20260505080426 45 319 4.3 11.3 0.00 0.17 0.00 91 1013.9
20260505080325 45 348 4.3 11.3 0.00 0.17 0.00 91 1013.9
20260505080220 45 20 4.3 11.3 0.00 0.17 0.00 91 1013.7
20260505080120 45 21 3.5 11.3 0.00 0.17 0.00 91 1013.9
20260505080019 45 348 3.5 7.8 0.00 0.17 0.00 91 1013.7
20260505075930 45 351 3.5 7.8 0.00 0.17 0.00 91 1013.7
20260505075819 45 10 2.6 7.0 0.00 0.17 0.00 91 1013.6
20260505075718 45 0 2.6 7.0 0.00 0.17 0.00 91 1013.6
20260505075616 45 346 2.6 7.0 0.00 0.17 0.00 91 1013.5
20260505075516 45 350 1.7 7.0 0.00 0.17 0.00 91 1013.5
20260505075417 45 355 1.7 5.2 0.00 0.17 0.00 91 1013.5
20260505075314 45 355 0.9 4.3 0.00 0.17 0.00 91 1013.4
20260505075211 45 350 0.9 4.3 0.00 0.17 0.00 91 1013.4
20260505075112 45 0 0.9 4.3 0.00 0.17 0.00 91 1013.4
20260505075012 45 329 0.0 4.3 0.00 0.17 0.00 91 1013.4
20260505074910 45 237 0.0 2.6 0.00 0.17 0.00 91 1013.5
20260505074815 45 179 0.0 0.0 0.00 0.17 0.00 91 1013.5
20260505074617 45 179 0.0 0.0 0.00 0.17 0.00 91 1013.4
20260505074302 45 179 0.0 0.0 0.00 0.17 0.00 91 1013.5
20260505074202 45 179 0.0 0.0 0.00 0.17 0.00 91 1013.4
20260505074107 45 179 0.0 0.0 0.00 0.17 0.00 90 1013.4
20260505073857 45 179 0.0 0.0 0.00 0.17 0.00 90 1013.4
20260505073755 45 179 0.0 0.0 0.00 0.17 0.00 90 1013.5
20260505073652 45 179 0.0 0.0 0.00 0.17 0.00 90 1013.5
20260505073553 45 179 0.0 0.0 0.00 0.17 0.00 90 1013.5
20260505073453 45 179 0.0 0.0 0.00 0.17 0.00 90 1013.6
20260505073400 45 179 0.0 0.0 0.00 0.17 0.00 90 1013.6
20260505073354 45 179 0.0 0.0 0.00 0.17 0.00 90 1013.6
20260505073145 45 179 0.0 0.0 0.00 0.17 0.00 90 1013.6
20260505073044 45 179 0.0 0.0 0.00 0.17 0.00 90 1013.6
20260505072944 45 179 0.0 0.0 0.00 0.17 0.00 90 1013.6
20260505072854 45 179 0.0 0.0 0.00 0.17 0.00 90 1013.6
20260505072847 45 179 0.0 0.0 0.00 0.17 0.00 90 1013.5
20260505072645 45 179 0.0 0.0 0.00 0.17 0.00 90 1013.5
20260505072542 45 179 0.0 0.0 0.00 0.17 0.00 90 1013.5
20260505072442 45 179 0.0 0.0 0.00 0.17 0.00 90 1013.4
20260505072340 45 179 0.0 0.0 0.00 0.17 0.00 90 1013.4
20260505072237 45 179 0.0 0.0 0.00 0.17 0.00 90 1013.5
20260505072133 45 179 0.0 0.0 0.00 0.17 0.00 90 1013.4
20260505072038 45 179 0.0 0.0 0.00 0.17 0.00 90 1013.4
20260505071831 45 179 0.0 0.0 0.00 0.17 0.00 90 1013.5
20260505071732 45 179 0.0 0.0 0.00 0.17 0.00 90 1013.5
20260505071637 45 179 0.0 0.0 0.00 0.17 0.00 90 1013.4
20260505071430 45 179 0.0 1.7 0.00 0.17 0.00 90 1013.5
20260505071327 45 179 0.0 1.7 0.00 0.17 0.00 90 1013.5
20260505071225 45 179 0.9 2.6 0.00 0.17 0.00 90 1013.5
20260505071126 45 179 0.9 2.6 0.00 0.17 0.00 90 1013.5
20260505071024 45 179 0.9 2.6 0.00 0.17 0.00 90 1013.5
20260505070923 45 179 0.9 2.6 0.00 0.17 0.00 90 1013.5
20260505070831 45 179 0.9 2.6 0.00 0.17 0.00 90 1013.5
20260505070824 45 179 0.9 2.6 0.00 0.17 0.00 90 1013.5
20260505070621 45 179 1.7 2.6 0.00 0.17 0.00 90 1013.5
20260505070413 45 179 1.7 4.3 0.00 0.17 0.00 90 1013.6
20260505070313 45 179 1.7 4.3 0.00 0.17 0.00 90 1013.6
20260505070214 45 179 1.7 4.3 0.00 0.17 0.00 90 1013.5
20260505070114 45 179 1.7 4.3 0.00 0.17 0.00 90 1013.5
20260505070012 45 179 1.7 4.3 0.00 0.17 0.00 90 1013.5
20260505065911 45 179 1.7 4.3 0.00 0.17 0.00 90 1013.6
20260505065819 45 179 1.7 4.3 0.00 0.17 0.00 90 1013.5
20260505065707 45 179 1.7 4.3 0.00 0.17 0.00 90 1013.5
20260505065603 45 179 1.7 4.3 0.00 0.17 0.00 90 1013.5
20260505065511 45 169 1.7 4.3 0.00 0.17 0.00 90 1013.5
20260505065305 45 163 1.7 4.3 0.00 0.17 0.00 90 1013.5
20260505065201 45 163 0.9 4.3 0.00 0.17 0.00 90 1013.5
20260505065100 45 192 0.9 2.6 0.00 0.17 0.00 90 1013.5
20260505065000 45 192 0.9 2.6 0.00 0.17 0.00 90 1013.5
20260505064858 45 192 0.9 1.7 0.00 0.17 0.00 90 1013.5
20260505064757 45 192 0.9 1.7 0.00 0.17 0.00 90 1013.5
20260505064655 45 192 0.9 1.7 0.00 0.17 0.00 90 1013.6
20260505064557 45 192 0.9 1.7 0.00 0.17 0.00 90 1013.6
20260505064347 45 192 0.9 1.7 0.00 0.17 0.00 90 1013.6
20260505064247 45 192 0.9 1.7 0.00 0.17 0.00 90 1013.6
20260505064146 45 192 0.0 1.7 0.00 0.17 0.00 90 1013.6
20260505064047 45 192 0.0 1.7 0.00 0.17 0.00 90 1013.6
20260505063946 45 192 0.0 1.7 0.00 0.17 0.00 90 1013.6
20260505063845 45 192 0.9 1.7 0.00 0.17 0.00 90 1013.6
20260505063743 45 192 0.9 1.7 0.00 0.17 0.00 90 1013.6
20260505063641 45 192 0.9 1.7 0.00 0.17 0.00 90 1013.6
20260505063539 45 192 0.9 1.7 0.00 0.17 0.00 90 1013.6
20260505063439 45 192 0.9 1.7 0.00 0.17 0.00 90 1013.6
20260505063354 45 192 0.9 1.7 0.00 0.17 0.00 90 1013.5
20260505063347 45 192 0.9 1.7 0.00 0.17 0.00 90 1013.6
20260505063030 45 192 0.9 1.7 0.00 0.17 0.00 90 1013.6
20260505062929 44 192 0.9 1.7 0.00 0.17 0.00 90 1013.6
20260505062848 44 192 0.9 1.7 0.00 0.17 0.00 90 1013.6
20260505062629 45 192 0.9 1.7 0.00 0.17 0.00 90 1013.6
20260505062523 44 192 0.9 1.7 0.00 0.17 0.00 90 1013.6
20260505062429 44 192 0.9 1.7 0.00 0.17 0.00 90 1013.6
20260505062240 44 192 0.9 1.7 0.00 0.17 0.00 90 1013.6
20260505062123 44 192 0.9 2.6 0.00 0.17 0.00 90 1013.6
20260505062021 44 192 0.0 2.6 0.00 0.17 0.00 90 1013.5
20260505061921 44 192 0.0 2.6 0.00 0.17 0.00 90 1013.6
20260505061821 44 192 0.0 2.6 0.00 0.17 0.00 90 1013.5
20260505061720 44 192 0.0 2.6 0.00 0.17 0.00 90 1013.6
20260505061617 44 192 0.0 2.6 0.00 0.17 0.00 90 1013.5
20260505061529 44 192 0.0 2.6 0.00 0.17 0.00 90 1013.6
20260505061225 44 192 0.9 2.6 0.00 0.17 0.00 90 1013.6
20260505061220 44 192 0.0 2.6 0.00 0.17 0.00 90 1013.6
20260505061017 44 192 0.0 2.6 0.00 0.17 0.00 90 1013.6
20260505060806 44 192 0.0 2.6 0.00 0.17 0.00 90 1013.6
20260505060708 44 192 0.0 2.6 0.00 0.17 0.00 90 1013.7
20260505060630 44 192 0.0 2.6 0.00 0.17 0.00 90 1013.7
20260505060607 44 192 0.0 2.6 0.00 0.17 0.00 89 1013.7
20260505060505 44 192 0.0 2.6 0.00 0.17 0.00 89 1013.6
20260505060405 44 192 0.0 2.6 0.00 0.17 0.00 89 1013.6
20260505060305 44 192 0.0 1.7 0.00 0.17 0.00 89 1013.6
20260505060201 44 192 0.0 1.7 0.00 0.17 0.00 89 1013.6
20260505060132 44 192 0.0 1.7 0.00 0.17 0.00 89 1013.6
20260505060100 44 192 0.0 0.0 0.00 0.17 0.00 89 1013.6
20260505055958 44 192 0.0 0.0 0.00 0.17 0.17 89 1013.6
20260505055749 44 192 0.0 0.0 0.00 0.17 0.17 89 1013.6
20260505055630 44 192 0.0 0.0 0.00 0.17 0.17 89 1013.6
20260505055549 44 192 0.0 0.0 0.00 0.17 0.17 89 1013.7
20260505055449 44 192 0.0 0.0 0.00 0.17 0.17 89 1013.7
20260505055345 44 192 0.0 0.0 0.00 0.17 0.17 89 1013.7
20260505055337 44 192 0.0 0.0 0.00 0.17 0.17 89 1013.7
20260505055050 44 192 0.0 1.7 0.00 0.17 0.17 89 1013.7
20260505054841 44 192 0.9 2.6 0.00 0.17 0.17 89 1013.7
20260505054748 44 192 0.9 2.6 0.00 0.17 0.17 89 1013.7
20260505054618 44 192 0.9 2.6 0.00 0.17 0.17 89 1013.7
20260505054545 44 192 0.9 2.6 0.00 0.17 0.17 89 1013.7
20260505054333 44 192 0.9 2.6 0.00 0.17 0.17 89 1013.7
20260505054231 44 192 0.9 2.6 0.00 0.17 0.17 89 1013.7
20260505054140 44 192 0.9 2.6 0.00 0.17 0.17 89 1013.6
20260505053931 44 192 0.9 1.7 0.00 0.17 0.17 89 1013.6
20260505053827 44 192 0.9 1.7 0.00 0.17 0.17 89 1013.6
20260505053727 44 192 0.9 1.7 0.00 0.17 0.17 89 1013.5
20260505053632 44 192 0.9 2.6 0.00 0.17 0.17 89 1013.5
20260505053437 44 192 0.9 2.6 0.00 0.17 0.17 89 1013.5
20260505053102 44 192 0.9 2.6 0.00 0.17 0.17 89 1013.5
20260505053021 44 192 0.9 2.6 0.00 0.17 0.17 89 1013.5
20260505052918 44 192 0.9 2.6 0.00 0.17 0.17 89 1013.5
20260505052818 44 192 0.9 2.6 0.00 0.17 0.17 89 1013.5
20260505052717 44 192 0.9 2.6 0.00 0.17 0.17 89 1013.5
20260505052601 44 192 0.9 1.7 0.00 0.17 0.17 89 1013.5
20260505052515 44 192 0.9 1.7 0.00 0.17 0.17 89 1013.5
20260505052413 44 192 0.9 2.6 0.00 0.17 0.17 89 1013.5
20260505052309 44 192 0.9 2.6 0.00 0.17 0.17 89 1013.5
20260505052207 44 192 0.9 2.6 0.00 0.17 0.17 88 1013.5
20260505052102 44 192 0.9 2.6 0.00 0.17 0.17 88 1013.5
20260505052008 44 192 0.9 2.6 0.00 0.17 0.17 88 1013.5
20260505051907 44 192 1.7 2.6 0.00 0.17 0.17 88 1013.5
20260505051805 44 192 1.7 2.6 0.00 0.17 0.17 88 1013.5
20260505051706 44 192 1.7 2.6 0.00 0.17 0.17 88 1013.5
20260505051601 44 192 1.7 2.6 0.00 0.17 0.17 88 1013.5
20260505051504 44 192 1.7 2.6 0.00 0.17 0.17 88 1013.6
20260505051402 44 192 1.7 2.6 0.00 0.17 0.17 88 1013.5
20260505051301 44 192 1.7 2.6 0.00 0.17 0.17 88 1013.6
20260505051159 44 192 1.7 2.6 0.00 0.17 0.17 88 1013.6
20260505051103 45 192 1.7 3.5 0.00 0.17 0.17 88 1013.7
20260505051059 45 192 1.7 3.5 0.00 0.17 0.17 88 1013.7
20260505050957 45 192 1.7 3.5 0.00 0.17 0.17 88 1013.7
20260505050854 45 192 1.7 3.5 0.00 0.17 0.17 88 1013.7
20260505050749 45 192 1.7 3.5 0.00 0.17 0.17 88 1013.7
20260505050649 45 192 1.7 3.5 0.00 0.17 0.17 88 1013.9
20260505050601 45 192 1.7 3.5 0.00 0.17 0.17 88 1013.9
20260505050549 45 192 1.7 3.5 0.00 0.17 0.17 88 1013.9
20260505050449 45 192 1.7 3.5 0.00 0.17 0.17 88 1013.7
20260505050349 45 192 1.7 3.5 0.00 0.17 0.17 88 1013.7
20260505050247 45 192 1.7 3.5 0.01 0.17 0.17 88 1013.7
20260505050148 45 204 1.7 3.5 0.01 0.17 0.17 88 1013.7
20260505041755 46 260 1.7 3.5 0.07 0.17 0.17 88 1014.0
20260505041705 46 260 1.7 3.5 0.07 0.17 0.17 88 1014.0
20260505041551 46 260 1.7 3.5 0.08 0.17 0.17 88 1014.0
20260505041454 46 217 1.7 3.5 0.08 0.17 0.17 88 1014.1
20260505041353 46 227 1.7 3.5 0.08 0.17 0.17 88 1014.1
20260505041253 46 227 1.7 3.5 0.08 0.17 0.17 88 1014.2
20260505041153 46 227 1.7 3.5 0.09 0.17 0.17 88 1014.2
20260505041052 46 227 1.7 4.3 0.09 0.17 0.17 87 1014.2
20260505041006 46 227 1.7 4.3 0.09 0.17 0.17 87 1014.3
20260505040651 46 234 2.6 4.3 0.10 0.17 0.17 87 1014.2
20260505040551 46 234 2.6 4.3 0.10 0.17 0.17 87 1014.2
20260505040451 46 234 2.6 4.3 0.10 0.17 0.17 87 1014.2
20260505040352 46 241 2.6 4.3 0.11 0.17 0.17 87 1014.2
20260505040251 46 227 2.6 4.3 0.10 0.16 0.16 87 1014.2
20260505040153 46 218 2.6 4.3 0.10 0.16 0.16 87 1014.2
20260505040052 46 222 2.6 4.3 0.10 0.16 0.16 87 1014.1
20260505035947 46 233 2.6 4.3 0.11 0.16 0.16 87 1014.2
20260505035848 46 202 2.6 4.3 0.11 0.16 0.16 87 1014.1
20260505035805 46 242 1.7 4.3 0.11 0.16 0.16 87 1014.1
20260505035758 46 213 1.7 4.3 0.12 0.16 0.16 86 1014.1
20260505035439 46 203 1.7 4.3 0.12 0.16 0.16 86 1014.1
20260505035339 46 227 1.7 3.5 0.13 0.16 0.16 86 1014.1
20260505035240 46 238 1.7 3.5 0.13 0.16 0.16 86 1014.1
20260505035150 46 230 1.7 3.5 0.13 0.16 0.16 86 1014.0
20260505035039 46 234 1.7 3.5 0.14 0.16 0.16 86 1014.0
20260505034934 46 224 1.7 3.5 0.14 0.16 0.16 86 1014.0
20260505034833 46 223 1.7 3.5 0.14 0.16 0.16 85 1014.0
20260505034733 46 221 1.7 4.3 0.14 0.16 0.16 85 1014.0
20260505034644 46 238 1.7 4.3 0.14 0.16 0.16 85 1014.0
20260505034533 46 224 1.7 4.3 0.13 0.15 0.16 85 1014.0
20260505034428 46 196 1.7 5.2 0.13 0.15 0.15 85 1014.1
20260505034327 46 221 1.7 6.1 0.13 0.15 0.15 85 1014.1
20260505034227 47 178 1.7 6.1 0.13 0.15 0.15 85 1014.1
20260505034150 47 217 1.7 6.1 0.14 0.15 0.15 85 1014.1
20260505034039 47 229 2.6 6.1 0.13 0.14 0.15 85 1014.1
20260505033723 47 244 3.5 7.8 0.13 0.14 0.14 84 1014.1
20260505033623 47 244 4.3 7.8 0.13 0.14 0.14 84 1014.1
20260505033521 47 244 4.3 7.8 0.13 0.14 0.14 84 1014.2
20260505033415 47 226 4.3 7.8 0.12 0.13 0.14 84 1014.2
20260505033315 47 222 4.3 7.8 0.12 0.13 0.13 84 1014.2
20260505033216 47 206 5.2 7.8 0.12 0.13 0.13 84 1014.3
20260505033128 47 219 5.2 7.8 0.12 0.13 0.13 84 1014.3
20260505033120 47 223 5.2 7.8 0.12 0.13 0.13 84 1014.3
20260505032817 47 267 5.2 8.7 0.11 0.12 0.12 83 1014.3
20260505032609 47 232 4.3 8.7 0.11 0.12 0.12 83 1014.2
20260505032509 47 242 5.2 8.7 0.11 0.12 0.12 83 1014.2
20260505032406 47 245 5.2 9.6 0.10 0.11 0.11 83 1014.2
20260505032305 47 240 5.2 9.6 0.10 0.11 0.11 83 1014.2
20260505032205 47 242 5.2 10.4 0.10 0.11 0.11 83 1014.2
20260505032105 47 263 5.2 10.4 0.10 0.11 0.11 83 1014.2
20260505032005 47 243 6.1 13.0 0.09 0.10 0.11 83 1014.2
20260505031757 48 220 6.1 13.0 0.09 0.10 0.10 83 1014.2
20260505031658 48 235 7.0 13.9 0.09 0.10 0.10 82 1014.2
20260505031557 48 276 7.8 13.9 0.08 0.09 0.10 82 1014.0
20260505031456 48 238 7.8 13.9 0.08 0.09 0.09 82 1014.1
20260505031351 48 256 7.8 13.9 0.08 0.09 0.09 82 1014.0
20260505031251 48 275 7.8 13.9 0.08 0.09 0.09 82 1014.0
20260505031151 48 277 8.7 13.9 0.07 0.08 0.09 81 1014.0
20260505031051 48 289 8.7 13.9 0.07 0.08 0.08 81 1014.0
20260505030959 48 259 8.7 13.9 0.07 0.08 0.08 81 1013.9
20260505030645 48 284 8.7 16.5 0.06 0.07 0.07 81 1013.9
20260505030545 49 284 8.7 16.5 0.06 0.07 0.07 81 1014.0
20260505030446 49 270 8.7 16.5 0.06 0.07 0.07 81 1014.0
20260505030341 49 271 8.7 16.5 0.05 0.06 0.07 81 1013.9
20260505030240 49 292 8.7 16.5 0.05 0.06 0.06 81 1013.9
20260505030139 49 318 8.7 16.5 0.05 0.06 0.06 81 1013.9
20260505030050 49 293 8.7 16.5 0.05 0.06 0.06 81 1013.7
20260505025939 49 261 8.7 16.5 0.04 0.05 0.06 80 1013.7
20260505025834 49 299 8.7 15.6 0.04 0.05 0.05 80 1013.7
20260505025734 49 279 8.7 15.6 0.04 0.05 0.05 80 1013.6
20260505025634 49 313 8.7 15.6 0.03 0.04 0.05 80 1013.6
20260505025534 49 288 8.7 15.6 0.03 0.04 0.04 80 1013.6
20260505025433 49 292 8.7 13.9 0.03 0.04 0.04 80 1013.5
20260505025327 49 306 8.7 13.9 0.02 0.03 0.04 80 1013.5
20260505025227 49 270 8.7 13.9 0.02 0.03 0.03 80 1013.5
20260505025133 49 313 8.7 13.9 0.02 0.03 0.03 79 1013.4
20260505024927 49 339 8.7 13.9 0.01 0.02 0.02 78 1013.5
20260505024822 49 284 8.7 12.2 0.01 0.02 0.02 78 1013.4
20260505024722 49 315 8.7 12.2 0.01 0.02 0.02 78 1013.4
20260505024620 50 272 7.8 12.2 0.01 0.02 0.02 78 1013.3
20260505024521 50 289 7.8 12.2 0.01 0.02 0.02 77 1013.3
20260505024421 50 299 7.8 12.2 0.01 0.02 0.02 77 1013.3
20260505024316 50 325 7.0 12.2 0.01 0.02 0.02 77 1013.3
20260505024215 50 299 7.0 12.2 0.01 0.02 0.02 76 1013.3
20260505024115 50 321 6.1 12.2 0.00 0.01 0.02 76 1013.2
20260505024015 50 292 5.2 11.3 0.00 0.01 0.01 76 1013.2
20260505023915 50 285 5.2 11.3 0.00 0.01 0.01 76 1013.2
20260505023717 50 306 4.3 8.7 0.00 0.01 0.01 75 1013.2
20260505023520 50 313 4.3 7.8 0.00 0.01 0.01 74 1012.9
20260505023513 50 348 4.3 7.8 0.00 0.01 0.01 74 1012.9
20260505023303 50 305 4.3 12.2 0.00 0.01 0.01 74 1012.9
20260505023204 50 347 4.3 12.2 0.00 0.01 0.01 74 1013.0
20260505023103 50 338 5.2 12.2 0.00 0.01 0.01 73 1013.0
20260505023014 50 19 5.2 12.2 0.00 0.01 0.01 73 1013.0
20260505022902 50 330 5.2 12.2 0.00 0.01 0.01 73 1012.9
20260505022759 50 333 5.2 12.2 0.00 0.01 0.01 72 1012.9
20260505022657 50 311 6.1 12.2 0.00 0.01 0.01 72 1012.9
20260505022557 50 275 6.1 12.2 0.00 0.01 0.01 72 1012.9
20260505022457 50 339 7.0 12.2 0.00 0.01 0.01 72 1012.8
20260505022356 50 355 6.1 12.2 0.00 0.01 0.01 71 1012.8
20260505022258 50 338 6.1 12.2 0.00 0.01 0.01 71 1012.8
20260505022051 50 0 6.1 12.2 0.00 0.01 0.01 71 1012.7
20260505021952 50 311 5.2 12.2 0.00 0.01 0.01 71 1012.7
20260505021859 51 331 5.2 12.2 0.00 0.01 0.01 70 1012.7
20260505021851 51 302 5.2 12.2 0.00 0.01 0.01 70 1012.6
20260505021752 51 340 5.2 12.2 0.00 0.01 0.01 70 1012.7
20260505021545 51 350 5.2 13.0 0.00 0.01 0.01 70 1012.7
20260505021456 51 317 5.2 13.0 0.00 0.01 0.01 70 1012.7
20260505021449 51 300 5.2 13.0 0.00 0.01 0.01 69 1012.7
20260505021240 51 15 6.1 13.0 0.00 0.01 0.01 69 1012.7
20260505021139 51 5 6.1 13.0 0.00 0.01 0.01 69 1012.7
20260505021039 51 355 6.1 13.0 0.00 0.01 0.01 68 1012.7
20260505020939 51 355 6.1 13.0 0.00 0.01 0.01 68 1012.7
20260505020859 51 327 6.1 13.0 0.00 0.01 0.01 68 1012.7
20260505020839 51 355 6.1 13.0 0.00 0.01 0.01 68 1012.7
20260505020733 51 11 6.1 13.0 0.00 0.01 0.01 67 1012.7
20260505020639 51 349 6.1 13.0 0.00 0.01 0.01 67 1012.7
20260505020446 51 308 5.2 12.2 0.00 0.01 0.01 67 1012.6
20260505020442 51 0 5.2 12.2 0.00 0.01 0.01 67 1012.6
20260505020127 52 348 5.2 11.3 0.00 0.01 0.01 67 1012.6
20260505020027 52 333 5.2 11.3 0.00 0.01 0.01 66 1012.6
20260505020004 52 0 5.2 11.3 0.00 0.01 0.01 66 1012.8
20260505015826 52 26 5.2 11.3 0.00 0.01 0.01 66 1012.8
20260505015721 52 344 5.2 11.3 0.00 0.01 0.01 66 1012.8
20260505015628 52 282 5.2 11.3 0.00 0.01 0.01 66 1012.8
20260505015421 53 332 5.2 11.3 0.00 0.01 0.01 66 1012.8
20260505015358 53 14 5.2 11.3 0.00 0.01 0.01 65 1012.8
20260505015321 53 334 5.2 12.2 0.00 0.01 0.01 65 1012.8
20260505015217 53 11 6.1 12.2 0.00 0.01 0.01 64 1012.8
20260505015115 53 288 6.1 12.2 0.00 0.01 0.01 64 1012.8
20260505015015 53 306 7.0 13.9 0.00 0.01 0.01 63 1012.8
20260505014915 53 337 7.0 13.9 0.00 0.01 0.01 63 1012.8
20260505014900 53 346 7.0 13.9 0.00 0.01 0.01 62 1012.8
20260505014815 53 331 6.1 13.9 0.00 0.01 0.01 62 1012.8
20260505014716 54 342 5.2 13.9 0.00 0.01 0.01 61 1012.8
20260505014509 54 289 4.3 13.9 0.00 0.01 0.01 59 1012.7
20260505014409 54 53 4.3 13.9 0.00 0.01 0.01 58 1012.7
20260505014400 54 17 4.3 13.9 0.00 0.01 0.01 58 1012.7
20260505014310 54 40 3.5 13.9 0.00 0.01 0.01 58 1012.6
20260505014127 55 5 1.7 13.9 0.00 0.01 0.01 56 1012.6
20260505014121 55 35 0.9 10.4 0.00 0.01 0.01 55 1012.7
20260505013659 55 34 0.9 2.6 0.00 0.01 0.01 54 1012.3
20260505013622 55 34 0.9 3.5 0.00 0.01 0.01 54 1012.4
20260505013615 55 34 0.9 3.5 0.00 0.01 0.01 54 1012.3
20260505013150 55 34 0.9 3.5 0.00 0.01 0.01 54 1012.2
20260505013051 55 34 0.9 3.5 0.00 0.01 0.01 55 1012.2
20260505012952 55 34 0.9 3.5 0.00 0.01 0.01 55 1012.4
20260505012851 55 34 0.9 3.5 0.00 0.01 0.01 55 1012.4
20260505012750 55 34 0.9 3.5 0.00 0.01 0.01 54 1012.4
20260505012649 55 34 0.9 3.5 0.00 0.01 0.01 54 1012.4
20260505012549 55 28 0.9 3.5 0.00 0.01 0.01 54 1012.4
20260505012449 55 10 0.9 3.5 0.00 0.01 0.01 54 1012.4
20260505012348 55 159 0.9 3.5 0.00 0.01 0.01 55 1012.4
20260505012245 55 159 0.9 3.5 0.00 0.01 0.01 55 1012.4
20260505012145 55 159 0.9 3.5 0.00 0.01 0.01 54 1012.4
20260505012113 55 159 0.9 3.5 0.00 0.01 0.01 54 1012.4
20260505011846 55 159 0.9 3.5 0.00 0.01 0.01 53 1012.4
20260505011639 55 159 1.7 4.3 0.00 0.01 0.01 53 1012.4
20260505011434 56 159 1.7 4.3 0.00 0.01 0.01 53 1012.4
20260505011355 56 159 1.7 5.2 0.00 0.01 0.01 53 1012.4
20260505011341 56 159 1.7 5.2 0.00 0.01 0.01 53 1012.3
20260505011128 56 159 1.7 5.2 0.00 0.01 0.01 53 1012.2
20260505011027 56 159 1.7 5.2 0.00 0.01 0.01 53 1012.2
20260505010927 56 159 1.7 5.2 0.00 0.01 0.01 53 1012.2
20260505010856 56 159 1.7 5.2 0.00 0.01 0.01 53 1012.2
20260505010827 56 159 2.6 5.2 0.00 0.01 0.01 53 1012.2
20260505010727 56 159 2.6 5.2 0.00 0.01 0.01 53 1012.2
20260505010621 56 159 2.6 5.2 0.00 0.01 0.01 52 1012.3
20260505010521 56 159 2.6 5.2 0.00 0.01 0.01 52 1012.3
20260505010431 56 159 2.6 5.2 0.00 0.01 0.01 52 1012.3
20260505010426 56 159 2.6 5.2 0.00 0.01 0.01 52 1012.3
20260505010222 56 147 2.6 5.2 0.00 0.01 0.01 52 1012.3
20260505010107 56 160 3.5 9.6 0.00 0.01 0.01 52 1012.3
20260505005811 56 134 3.5 9.6 0.00 0.01 0.01 52 1012.2
20260505005711 56 129 4.3 9.6 0.00 0.01 0.01 51 1012.2
20260505005612 56 101 4.3 9.6 0.00 0.01 0.01 51 1012.2
20260505005404 56 131 5.2 9.6 0.00 0.01 0.01 50 1012.1
20260505005350 56 157 5.2 9.6 0.00 0.01 0.01 50 1012.1
20260505005306 57 112 5.2 9.6 0.00 0.01 0.01 50 1012.1
20260505005205 57 141 5.2 9.6 0.00 0.01 0.01 50 1012.1
20260505005101 57 151 4.3 8.7 0.00 0.01 0.01 49 1012.1
20260505005001 57 148 4.3 8.7 0.00 0.01 0.01 49 1012.1
20260505004900 57 140 4.3 8.7 0.00 0.01 0.01 48 1012.1
20260505004851 57 126 4.3 8.7 0.00 0.01 0.01 48 1012.2
20260505004802 57 157 4.3 8.7 0.00 0.01 0.01 48 1012.2
20260505004658 57 139 3.5 7.8 0.00 0.01 0.01 48 1012.2
20260505004553 57 109 3.5 7.8 0.00 0.01 0.01 47 1012.1
20260505004453 57 92 3.5 7.8 0.00 0.01 0.01 48 1012.2
20260505004355 57 140 2.6 7.8 0.00 0.01 0.01 48 1012.2
20260505004351 57 145 2.6 7.8 0.00 0.01 0.01 48 1012.2
20260505004259 58 138 2.6 7.8 0.00 0.01 0.01 48 1012.2
20260505004052 58 156 2.6 7.8 0.00 0.01 0.01 48 1012.2
20260505003952 58 137 2.6 7.8 0.00 0.01 0.01 47 1012.2
20260505003856 58 134 1.7 6.1 0.00 0.01 0.01 47 1012.2
20260505003850 58 134 1.7 6.1 0.00 0.01 0.01 47 1012.1
20260505003800 58 134 1.7 6.1 0.00 0.01 0.01 47 1012.1
20260505003551 58 128 1.7 3.5 0.00 0.01 0.01 47 1012.1
20260505003501 58 128 0.9 3.5 0.00 0.01 0.01 47 1012.1
20260505003349 58 128 0.9 3.5 0.00 0.01 0.01 47 1012.1
20260505003250 58 121 0.9 3.5 0.00 0.01 0.01 46 1012.0
20260505003149 58 323 0.9 2.6 0.00 0.01 0.01 46 1012.0
20260505003050 58 323 0.9 2.6 0.00 0.01 0.01 46 1012.0
20260505002950 58 323 0.9 2.6 0.00 0.01 0.01 46 1012.1
20260505002852 58 323 0.9 2.6 0.00 0.01 0.01 46 1012.1
20260505002848 58 323 0.9 2.6 0.00 0.01 0.01 46 1012.0
20260505002748 58 324 0.9 2.6 0.00 0.01 0.01 46 1012.0
20260505002650 58 323 0.9 2.6 0.00 0.01 0.01 46 1012.0
20260505002549 58 324 0.9 2.6 0.00 0.01 0.01 45 1012.1
20260505002449 58 323 0.9 2.6 0.00 0.01 0.01 45 1012.0
20260505002352 58 323 0.9 2.6 0.00 0.01 0.01 45 1012.1
20260505002345 58 324 0.9 2.6 0.00 0.01 0.01 45 1012.1
20260505002242 58 323 0.9 4.3 0.00 0.01 0.01 45 1012.1
20260505002142 58 324 0.9 4.3 0.00 0.01 0.01 46 1012.1
20260505002043 58 323 0.9 4.3 0.00 0.01 0.01 46 1012.1
20260505001942 58 323 1.7 4.3 0.00 0.01 0.01 46 1012.1
20260505001851 58 324 1.7 6.1 0.00 0.01 0.01 46 1012.1
20260505001843 58 323 1.7 6.1 0.00 0.01 0.01 46 1012.1
20260505001545 58 323 2.6 7.0 0.00 0.01 0.01 45 1011.9
20260505001351 58 324 3.5 7.8 0.00 0.01 0.01 45 1011.9
20260505001337 58 323 3.5 7.8 0.00 0.01 0.01 45 1011.9
20260505001236 58 323 3.5 7.8 0.00 0.01 0.01 45 1012.0
20260505001135 58 324 3.5 7.8 0.00 0.01 0.01 45 1012.0
20260505001035 58 324 4.3 7.8 0.00 0.01 0.01 45 1012.0
20260505000935 58 308 4.3 8.7 0.00 0.01 0.01 45 1012.0
20260505000850 58 302 4.3 8.7 0.00 0.01 0.01 45 1012.0
20260505000835 58 293 4.3 8.7 0.00 0.01 0.01 45 1012.0
20260505000742 58 306 3.5 8.7 0.00 0.01 0.01 45 1011.9
20260505000543 58 336 4.3 8.7 0.00 0.01 0.01 45 1011.9
20260505000351 58 313 4.3 9.6 0.00 0.01 0.01 45 1011.9
20260505000343 58 325 4.3 9.6 0.00 0.01 0.01 45 1011.7
20260505000135 58 327 4.3 9.6 0.00 0.01 0.01 45 1011.7
20260505000036 58 338 4.3 9.6 0.00 0.01 0.01 46 1011.6
20260504235936 58 355 5.2 11.3 0.00 0.01 0.01 46 1011.7
20260504235851 58 9 5.2 11.3 0.00 0.01 0.01 46 1011.7
20260504235835 58 336 5.2 11.3 0.00 0.01 0.01 46 1011.6
20260504235735 58 306 5.2 11.3 0.00 0.01 0.01 45 1011.6
20260504235630 58 5 5.2 11.3 0.00 0.01 0.01 45 1011.6
20260504235529 58 316 5.2 11.3 0.00 0.01 0.01 44 1011.6
20260504235429 59 300 5.2 11.3 0.00 0.01 0.01 45 1011.7
20260504235351 59 299 5.2 11.3 0.00 0.01 0.01 45 1011.7
20260504235329 59 348 5.2 11.3 0.00 0.01 0.01 45 1011.7
20260504235229 59 338 5.2 11.3 0.00 0.01 0.01 45 1011.6
20260504235123 59 325 5.2 11.3 0.00 0.01 0.01 45 1011.6
20260504235030 59 355 5.2 11.3 0.00 0.01 0.01 45 1011.6
20260504234851 59 326 4.3 8.7 0.00 0.01 0.01 44 1011.6
20260504234830 59 338 4.3 8.7 0.00 0.01 0.01 44 1011.6
20260504234621 59 299 5.2 8.7 0.00 0.01 0.01 44 1011.6
20260504234521 59 332 5.2 8.7 0.00 0.01 0.01 44 1011.6
20260504234433 59 319 5.2 8.7 0.00 0.01 0.01 44 1011.6
20260504234428 59 332 5.2 8.7 0.00 0.01 0.01 44 1011.5
20260504234222 59 301 4.3 8.7 0.00 0.01 0.01 44 1011.5
20260504234121 59 334 4.3 8.7 0.00 0.01 0.01 44 1011.5
20260504234021 59 350 4.3 8.7 0.00 0.01 0.01 44 1011.4
20260504233920 59 340 4.3 9.6 0.00 0.01 0.01 44 1011.4
20260504233851 59 332 4.3 9.6 0.00 0.01 0.01 45 1011.4
20260504233828 59 0 4.3 9.6 0.00 0.01 0.01 45 1011.4
20260504233620 59 340 5.2 11.3 0.00 0.01 0.01 45 1011.4
20260504233518 59 355 5.2 11.3 0.00 0.01 0.01 45 1011.4
20260504233419 59 340 5.2 11.3 0.00 0.01 0.01 44 1011.4
20260504233347 59 347 5.2 11.3 0.00 0.01 0.01 44 1011.4
20260504233320 59 291 5.2 11.3 0.00 0.01 0.01 44 1011.4
20260504233219 59 339 5.2 11.3 0.00 0.01 0.01 44 1011.4
20260504233118 59 355 6.1 11.3 0.00 0.01 0.01 44 1011.4
20260504233019 59 294 6.1 11.3 0.00 0.01 0.01 44 1011.5
20260504232913 59 333 6.1 11.3 0.00 0.01 0.01 44 1011.5
20260504232846 59 350 6.1 11.3 0.00 0.01 0.01 45 1011.5
20260504232814 59 349 6.1 11.3 0.00 0.01 0.01 45 1011.5
20260504232711 59 347 7.0 12.2 0.00 0.01 0.01 44 1011.5
20260504232619 59 321 7.0 13.0 0.00 0.01 0.01 44 1011.5
20260504232405 59 344 7.0 13.0 0.00 0.01 0.01 44 1011.4
20260504232346 59 350 7.8 13.0 0.00 0.01 0.01 44 1011.4
20260504232312 59 324 7.8 13.0 0.00 0.01 0.01 44 1011.4
20260504232105 59 332 7.8 13.0 0.00 0.01 0.01 44 1011.4
20260504232005 59 351 7.8 13.0 0.00 0.01 0.01 44 1011.3
20260504231918 59 339 7.8 13.0 0.00 0.01 0.01 44 1011.4
20260504231914 59 355 7.8 13.0 0.00 0.01 0.01 44 1011.3
20260504231704 59 319 7.8 13.0 0.00 0.01 0.01 44 1011.3
20260504231613 59 333 7.8 12.2 0.00 0.01 0.01 44 1011.3
20260504231404 59 308 7.8 12.2 0.00 0.01 0.01 45 1011.4
20260504231347 59 293 7.8 12.2 0.00 0.01 0.01 45 1011.4
20260504231305 59 328 7.8 12.2 0.00 0.01 0.01 45 1011.4
20260504231201 59 321 7.8 12.2 0.00 0.01 0.01 45 1011.4
20260504231101 59 306 7.8 12.2 0.00 0.01 0.01 44 1011.5
20260504231002 59 298 8.7 12.2 0.00 0.01 0.01 44 1011.5
20260504230914 59 296 8.7 14.8 0.00 0.01 0.01 44 1011.5
20260504230909 59 297 8.7 14.8 0.00 0.01 0.01 44 1011.4
20260504230700 59 319 8.7 14.8 0.00 0.01 0.01 44 1011.4
20260504230600 59 291 8.7 16.5 0.00 0.01 0.01 44 1011.3
20260504230509 59 347 8.7 16.5 0.00 0.01 0.01 44 1011.3
20260504230347 59 317 8.7 16.5 0.00 0.01 0.01 44 1011.3
20260504230300 59 322 8.7 16.5 0.00 0.01 0.01 43 1011.3
20260504230209 59 319 9.6 16.5 0.00 0.01 0.01 43 1011.3
20260504225959 59 310 9.6 16.5 0.00 0.01 0.01 43 1011.1
20260504225858 58 324 9.6 16.5 0.00 0.01 0.01 44 1011.1
20260504225847 58 5 9.6 16.5 0.00 0.01 0.01 44 1011.1
20260504225758 58 343 9.6 16.5 0.00 0.01 0.01 43 1011.1
20260504225659 58 300 9.6 16.5 0.00 0.01 0.01 45 1011.3
20260504225558 58 312 9.6 15.6 0.00 0.01 0.01 45 1011.3
20260504225500 58 319 9.6 15.6 0.00 0.01 0.01 45 1011.4
20260504225359 58 296 9.6 15.6 0.00 0.01 0.01 44 1011.3
20260504225347 58 292 9.6 15.6 0.00 0.01 0.01 44 1011.3
20260504225259 58 355 9.6 15.6 0.00 0.01 0.01 44 1011.3
20260504225158 58 319 9.6 15.6 0.00 0.01 0.01 44 1011.3
20260504225107 58 297 9.6 15.6 0.00 0.01 0.01 44 1011.3
20260504224912 59 324 8.7 14.8 0.00 0.01 0.01 43 1011.1
20260504224906 58 318 8.7 14.8 0.00 0.01 0.01 43 1011.1
20260504224700 58 293 7.8 13.9 0.00 0.01 0.01 44 1011.3
20260504224605 58 313 7.8 13.9 0.00 0.01 0.01 45 1011.3
20260504224410 59 5 8.7 13.9 0.00 0.01 0.01 43 1011.3
20260504224406 58 338 8.7 13.9 0.00 0.01 0.01 43 1011.4
20260504224158 59 355 8.7 14.8 0.00 0.01 0.01 43 1011.4
20260504224055 58 296 8.7 14.8 0.00 0.01 0.01 44 1011.5
20260504223955 59 320 8.7 14.8 0.00 0.01 0.01 43 1011.5
20260504223855 59 347 8.7 14.8 0.00 0.01 0.01 43 1011.6
20260504223846 59 311 8.7 14.8 0.00 0.01 0.01 43 1011.6
20260504223755 59 269 8.7 14.8 0.00 0.01 0.01 44 1011.6
20260504223655 59 313 7.8 14.8 0.00 0.01 0.01 44 1011.6
20260504223555 59 331 7.8 14.8 0.00 0.01 0.01 44 1011.7
20260504223455 59 348 7.0 14.8 0.00 0.01 0.01 44 1011.7
20260504223354 59 319 7.0 14.8 0.00 0.01 0.01 44 1011.7
20260504223347 59 317 6.1 14.8 0.00 0.01 0.01 44 1011.7
20260504223254 59 311 6.1 13.9 0.00 0.01 0.01 45 1011.7
20260504223155 59 315 5.2 13.0 0.00 0.01 0.01 45 1011.6
20260504223054 59 322 5.2 13.0 0.00 0.01 0.01 45 1011.6
20260504222954 59 313 4.3 8.7 0.00 0.01 0.01 46 1011.6
20260504222854 59 332 4.3 8.7 0.00 0.01 0.01 46 1011.6
20260504222846 58 355 3.5 8.7 0.00 0.01 0.01 46 1011.6
20260504222755 58 334 3.5 8.7 0.00 0.01 0.01 46 1011.6
20260504222655 58 344 3.5 8.7 0.00 0.01 0.01 45 1011.6
20260504222555 58 311 3.5 8.7 0.00 0.01 0.01 45 1011.7
20260504222454 58 299 3.5 8.7 0.00 0.01 0.01 50 1011.6
20260504222405 58 26 3.5 8.7 0.00 0.01 0.01 50 1011.6
20260504222401 58 40 4.3 8.7 0.00 0.01 0.01 50 1011.7
20260504222148 58 5 4.3 10.4 0.00 0.01 0.01 49 1011.7
20260504222056 58 348 5.2 13.9 0.00 0.01 0.01 50 1011.7
20260504221851 58 321 6.1 13.9 0.00 0.01 0.01 47 1011.7
20260504221847 58 0 7.0 13.9 0.00 0.01 0.01 47 1011.7
20260504221749 59 9 7.0 13.9 0.00 0.01 0.01 47 1011.7
20260504221642 59 25 7.0 13.9 0.00 0.01 0.01 47 1011.7
20260504221551 59 355 7.8 13.9 0.00 0.01 0.01 46 1011.6
20260504221347 59 5 7.8 13.9 0.00 0.01 0.01 46 1011.5
20260504221342 59 316 7.8 13.9 0.00 0.01 0.01 46 1011.5
20260504221243 59 24 7.8 13.9 0.00 0.01 0.01 45 1011.5
20260504221143 59 0 7.8 13.9 0.00 0.01 0.01 45 1011.4
20260504221043 59 350 7.8 13.9 0.00 0.01 0.01 45 1011.3
20260504220939 59 327 8.7 15.6 0.00 0.01 0.01 43 1011.3
20260504220846 59 311 8.7 15.6 0.00 0.01 0.01 42 1011.3
20260504220838 59 286 8.7 15.6 0.00 0.01 0.01 42 1011.3
20260504220739 59 339 8.7 15.6 0.00 0.01 0.01 42 1011.3
20260504220639 60 332 9.6 15.6 0.00 0.01 0.01 41 1011.3
20260504220539 60 298 9.6 16.5 0.00 0.01 0.01 41 1011.3
20260504220439 60 294 9.6 16.5 0.00 0.01 0.01 41 1011.3
20260504220338 60 327 9.6 16.5 0.00 0.01 0.01 41 1011.1
20260504220239 60 346 10.4 16.5 0.00 0.01 0.01 41 1011.1
20260504220139 60 343 9.6 16.5 0.00 0.01 0.01 41 1011.0
20260504220045 60 242 10.4 16.5 0.00 0.01 0.01 41 1011.0
20260504215847 60 312 10.4 16.5 0.00 0.01 0.01 41 1010.9
20260504215839 60 340 10.4 16.5 0.00 0.01 0.01 41 1010.9
20260504215739 60 0 9.6 16.5 0.00 0.01 0.01 41 1010.8
20260504215639 60 332 9.6 16.5 0.00 0.01 0.01 40 1010.9
20260504215539 60 51 9.6 16.5 0.00 0.01 0.01 40 1010.8
20260504215438 60 11 9.6 16.5 0.00 0.01 0.01 41 1010.8
20260504215346 60 355 9.6 20.9 0.00 0.01 0.01 40 1010.7
20260504215338 61 5 9.6 20.9 0.00 0.01 0.01 40 1010.7
20260504215239 61 24 9.6 20.9 0.00 0.01 0.01 40 1010.7
20260504215139 61 41 9.6 20.9 0.00 0.01 0.01 40 1010.5
20260504215053 61 35 10.4 20.9 0.00 0.01 0.01 39 1010.5
20260504215046 61 355 10.4 20.9 0.00 0.01 0.01 39 1010.4
20260504214736 61 306 11.3 20.9 0.00 0.01 0.01 39 1010.4
20260504214634 61 20 11.3 20.9 0.00 0.01 0.01 38 1010.4
20260504214600 61 303 11.3 20.9 0.00 0.01 0.01 38 1010.4
20260504214334 62 324 11.3 20.9 0.00 0.01 0.01 38 1010.4
20260504214235 62 355 11.3 20.9 0.00 0.01 0.01 37 1010.3
20260504214141 62 315 11.3 20.9 0.00 0.01 0.01 38 1010.3
20260504213935 62 344 10.4 20.9 0.00 0.01 0.01 36 1010.3
20260504213846 62 0 10.4 20.9 0.00 0.01 0.01 36 1010.2
20260504213835 62 5 10.4 20.9 0.00 0.01 0.01 36 1010.2
20260504213734 63 316 10.4 20.9 0.00 0.01 0.01 36 1010.3
20260504213634 63 34 9.6 20.9 0.00 0.01 0.01 37 1010.2
20260504213542 63 337 10.4 20.9 0.00 0.01 0.01 36 1010.2
20260504213347 63 349 9.6 19.1 0.00 0.01 0.01 36 1010.1
20260504213335 63 5 9.6 19.1 0.00 0.01 0.01 36 1010.1
20260504213234 63 71 10.4 19.1 0.00 0.01 0.01 35 1010.2
20260504213131 64 355 9.6 20.0 0.00 0.01 0.01 36 1010.1
20260504213101 64 347 9.6 20.0 0.00 0.01 0.01 35 1010.2
20260504212831 65 341 9.6 20.0 0.00 0.01 0.01 33 1010.2
20260504212730 65 15 8.7 20.0 0.00 0.01 0.01 33 1010.3
20260504212631 65 355 7.8 20.0 0.00 0.01 0.01 32 1010.3
20260504212531 66 332 7.8 20.0 0.00 0.01 0.01 33 1010.3
20260504212454 66 327 7.0 20.0 0.00 0.01 0.01 33 1010.3
20260504212336 66 13 6.1 20.0 0.00 0.01 0.01 32 1010.3
20260504212130 66 14 5.2 12.2 0.00 0.01 0.01 29 1010.1
20260504212030 66 65 5.2 12.2 0.00 0.01 0.01 30 1010.1
20260504211931 66 54 5.2 12.2 0.00 0.01 0.01 31 1010.1
20260504211848 66 77 5.2 8.7 0.00 0.01 0.01 29 1010.0
20260504211831 66 74 5.2 8.7 0.00 0.01 0.01 29 1010.0
20260504211731 66 53 4.3 8.7 0.00 0.01 0.01 31 1010.0
20260504211637 66 76 4.3 8.7 0.00 0.01 0.01 30 1010.0
20260504211430 66 64 4.3 8.7 0.00 0.01 0.01 30 1010.0
20260504211330 66 84 4.3 8.7 0.00 0.01 0.01 30 1010.0
20260504211227 66 88 4.3 8.7 0.00 0.01 0.01 29 1010.0
20260504211149 66 81 4.3 7.8 0.00 0.01 0.01 33 1010.0
20260504211142 66 103 4.3 7.8 0.00 0.01 0.01 31 1010.0
20260504210720 66 80 5.2 8.7 0.00 0.01 0.01 33 1010.0
20260504210626 65 58 5.2 8.7 0.00 0.01 0.01 33 1010.0
20260504210452 65 129 4.3 8.7 0.00 0.01 0.01 31 1010.0
20260504210318 65 107 5.2 8.7 0.00 0.01 0.01 31 1010.0
20260504210213 65 106 5.2 8.7 0.00 0.01 0.01 32 1010.1
20260504210113 65 77 4.3 8.7 0.00 0.01 0.01 32 1010.0
20260504210012 65 95 4.3 8.7 0.00 0.01 0.01 33 1010.1
20260504205912 65 126 4.3 8.7 0.00 0.01 0.01 32 1010.1
20260504205844 65 109 4.3 8.7 0.00 0.01 0.01 32 1010.2
20260504205810 65 129 4.3 8.7 0.00 0.01 0.01 32 1010.2
20260504205706 65 107 3.5 7.0 0.00 0.01 0.01 33 1010.2
20260504205605 65 109 3.5 7.0 0.00 0.01 0.01 33 1010.2
20260504205504 65 141 3.5 7.0 0.00 0.01 0.01 33 1010.2
20260504205453 65 123 3.5 7.0 0.00 0.01 0.01 35 1010.2
20260504205305 65 112 3.5 7.0 0.00 0.01 0.01 36 1010.2
20260504205157 65 105 3.5 7.0 0.00 0.01 0.01 36 1010.2
20260504205104 64 119 3.5 7.8 0.00 0.01 0.01 36 1010.2
20260504204857 64 148 3.5 7.8 0.00 0.01 0.01 36 1010.3
20260504204845 64 138 3.5 7.8 0.00 0.01 0.01 36 1010.3
20260504204755 64 128 3.5 7.8 0.00 0.01 0.01 38 1010.2
20260504204650 64 135 4.3 7.8 0.00 0.01 0.01 36 1010.2
20260504204549 64 128 3.5 7.8 0.00 0.01 0.01 36 1010.2
20260504204449 64 110 3.5 7.8 0.00 0.01 0.01 38 1010.2
20260504204351 64 143 3.5 7.8 0.00 0.01 0.01 36 1010.2
20260504204346 64 142 3.5 7.8 0.00 0.01 0.01 36 1010.2
20260504204250 64 126 3.5 7.8 0.00 0.01 0.01 36 1010.3
20260504204143 63 128 3.5 7.8 0.00 0.01 0.01 37 1010.3
20260504204044 63 110 3.5 7.0 0.00 0.01 0.01 38 1010.3
20260504203944 63 86 3.5 7.0 0.00 0.01 0.01 38 1010.3
20260504203859 63 117 3.5 7.0 0.00 0.01 0.01 39 1010.3
20260504203855 63 93 3.5 7.0 0.00 0.01 0.01 39 1010.3
20260504203538 63 115 3.5 7.0 0.00 0.01 0.01 40 1010.4
20260504203440 63 121 3.5 7.0 0.00 0.01 0.01 40 1010.5
20260504203344 63 154 3.5 7.0 0.00 0.01 0.01 40 1010.5
20260504203340 62 159 3.5 7.0 0.00 0.01 0.01 40 1010.5
20260504203236 62 160 3.5 7.0 0.00 0.01 0.01 41 1010.5
20260504203131 62 150 3.5 7.0 0.00 0.01 0.01 41 1010.5
20260504203057 62 121 3.5 8.7 0.00 0.01 0.01 41 1010.5
20260504202837 62 111 3.5 8.7 0.00 0.01 0.01 41 1010.5
20260504202627 62 115 3.5 8.7 0.00 0.01 0.01 40 1010.7
20260504202524 62 143 3.5 10.4 0.00 0.01 0.01 40 1010.8
20260504202425 62 126 3.5 10.4 0.00 0.01 0.01 41 1010.8
20260504202342 62 132 3.5 10.4 0.01 0.01 0.01 41 1010.8
20260504202325 62 146 3.5 10.4 0.01 0.01 0.01 41 1010.8
20260504202225 62 126 3.5 10.4 0.01 0.01 0.01 41 1010.9
20260504202024 62 121 4.3 10.4 0.01 0.01 0.01 41 1010.9
20260504201844 61 175 4.3 10.4 0.01 0.01 0.01 40 1011.0
20260504201817 61 153 4.3 10.4 0.01 0.01 0.01 40 1011.0
20260504201716 61 166 4.3 10.4 0.01 0.01 0.01 41 1011.0
20260504201620 61 162 5.2 10.4 0.01 0.01 0.01 41 1011.1
20260504201451 61 179 5.2 11.3 0.01 0.01 0.01 44 1011.1
20260504201314 61 185 6.1 12.2 0.01 0.01 0.01 45 1011.3
20260504201209 61 205 6.1 15.6 0.01 0.01 0.01 44 1011.3
20260504201111 60 144 7.0 15.6 0.01 0.01 0.01 42 1011.3
20260504200905 60 137 6.1 15.6 0.01 0.01 0.01 43 1011.3
20260504200841 60 126 6.1 15.6 0.01 0.01 0.01 43 1011.3
20260504200803 60 115 6.1 15.6 0.01 0.01 0.01 43 1011.3
20260504200702 60 113 6.1 15.6 0.01 0.01 0.01 43 1011.4
20260504200559 60 131 6.1 15.6 0.01 0.01 0.01 42 1011.5
20260504200459 60 134 6.1 15.6 0.01 0.01 0.01 44 1011.5
20260504200443 60 175 6.1 15.6 0.01 0.01 0.01 48 1011.6
20260504200258 60 198 5.2 15.6 0.01 0.01 0.01 49 1011.4
20260504200158 60 200 5.2 11.3 0.01 0.01 0.01 51 1011.4
20260504195951 59 194 6.1 13.0 0.01 0.01 0.01 54 1011.4
20260504195850 59 178 6.1 13.0 0.01 0.01 0.01 50 1011.4
20260504195831 59 186 6.1 13.0 0.01 0.01 0.01 50 1011.4
20260504195751 59 180 6.1 13.0 0.01 0.01 0.01 52 1011.3
20260504195652 59 159 6.1 13.0 0.01 0.01 0.01 50 1011.3
20260504195559 59 116 7.0 13.0 0.01 0.01 0.01 48 1011.3
20260504195325 59 90 7.0 15.6 0.01 0.01 0.01 50 1011.3
20260504195246 58 163 6.1 15.6 0.01 0.01 0.01 49 1011.1
20260504195144 58 128 7.0 15.6 0.01 0.01 0.01 51 1011.1
20260504195041 58 123 7.0 15.6 0.01 0.01 0.01 51 1011.3
20260504194940 58 133 7.8 15.6 0.01 0.01 0.01 51 1011.0
20260504194838 58 133 7.8 15.6 0.01 0.01 0.01 51 1011.0
20260504194819 58 167 7.8 15.6 0.01 0.01 0.01 53 1011.0
20260504194739 58 143 7.8 15.6 0.01 0.01 0.01 52 1011.0
20260504194638 58 108 7.8 15.6 0.01 0.01 0.01 53 1011.1
20260504194534 58 131 7.8 15.6 0.01 0.01 0.01 55 1011.1
20260504194433 58 120 7.8 13.9 0.01 0.01 0.01 55 1011.0
20260504194333 58 148 7.8 13.9 0.01 0.01 0.01 51 1011.1
20260504194312 58 113 7.8 13.9 0.01 0.01 0.01 51 1011.1
20260504194232 58 84 8.7 15.6 0.01 0.01 0.01 50 1011.0
20260504194132 58 122 8.7 15.6 0.01 0.01 0.01 52 1011.0
20260504194029 58 123 8.7 15.6 0.01 0.01 0.01 53 1011.0
20260504194001 58 115 8.7 15.6 0.01 0.01 0.01 56 1011.0
20260504193954 58 138 8.7 15.6 0.01 0.01 0.01 55 1011.1
20260504193332 59 140 10.4 22.6 0.01 0.01 0.01 49 1011.1
20260504193325 59 182 10.4 25.2 0.01 0.01 0.01 49 1011.1
20260504193123 59 181 11.3 25.2 0.01 0.01 0.01 49 1011.1
20260504192915 60 138 12.2 26.1 0.01 0.01 0.01 45 1011.1
20260504192826 60 155 13.0 26.1 0.01 0.01 0.01 44 1011.1
20260504192820 60 170 13.0 26.1 0.01 0.01 0.01 43 1011.1
20260504192615 61 123 13.9 26.1 0.01 0.01 0.01 44 1010.9
20260504192509 62 150 13.9 26.1 0.01 0.01 0.01 44 1010.9
20260504192409 62 210 13.0 26.1 0.00 0.00 0.01 43 1011.0
20260504192311 63 180 13.0 26.1 0.00 0.00 0.00 40 1010.8
20260504192304 63 182 13.0 26.1 0.00 0.00 0.00 40 1010.8
20260504192210 64 164 13.0 26.1 0.00 0.00 0.00 37 1010.9
20260504192111 64 186 12.2 26.1 0.00 0.00 0.00 36 1010.9
20260504191905 65 190 11.3 26.1 0.00 0.00 0.00 33 1010.8
20260504191810 66 195 10.4 26.1 0.00 0.00 0.00 30 1010.9
20260504191805 66 121 10.4 26.1 0.00 0.00 0.00 30 1010.9
20260504191706 66 188 9.6 20.9 0.00 0.00 0.00 27 1010.9
20260504191603 66 167 8.7 18.2 0.00 0.00 0.00 27 1010.8
20260504191458 67 159 7.8 18.2 0.00 0.00 0.00 26 1010.8
20260504191357 67 146 7.8 18.2 0.00 0.00 0.00 25 1010.9
20260504191304 67 131 7.0 18.2 0.00 0.00 0.00 24 1010.8
20260504191256 67 132 7.0 18.2 0.00 0.00 0.00 24 1010.8
20260504191158 67 136 6.1 17.4 0.00 0.00 0.00 23 1010.8
20260504191056 67 117 5.2 17.4 0.00 0.00 0.00 22 1010.4
20260504191008 68 144 4.3 17.4 0.00 0.00 0.00 24 1010.4
20260504190854 68 146 3.5 9.6 0.00 0.00 0.00 23 1010.3
20260504190658 68 206 4.3 7.8 0.00 0.00 0.00 23 1010.2
20260504190445 68 268 4.3 10.4 0.00 0.00 0.00 24 1010.2
20260504190346 68 300 4.3 10.4 0.00 0.00 0.00 24 1010.1
20260504190303 68 225 4.3 10.4 0.00 0.00 0.00 23 1010.1
20260504190245 68 306 5.2 10.4 0.00 0.00 0.00 23 1010.1
20260504190153 68 252 5.2 10.4 0.00 0.00 0.00 24 1010.1
20260504185850 68 247 6.1 10.4 0.00 0.00 0.00 24 1010.1
20260504185843 68 280 6.1 10.4 0.00 0.00 0.00 24 1010.1
20260504185639 68 264 6.1 13.0 0.00 0.00 0.00 24 1010.1
20260504185538 68 294 6.1 13.0 0.00 0.00 0.00 24 1010.0
20260504185435 69 290 6.1 13.0 0.00 0.00 0.00 24 1010.0
20260504185335 69 291 6.1 13.0 0.00 0.00 0.00 23 1010.0
20260504185301 69 300 6.1 13.0 0.00 0.00 0.00 23 1010.0
20260504185242 69 296 6.1 13.0 0.00 0.00 0.00 23 1010.0
20260504185036 69 273 6.1 13.0 0.00 0.00 0.00 23 1009.8
20260504184907 69 348 5.2 13.0 0.00 0.00 0.00 23 1009.8
20260504184727 69 324 5.2 13.0 0.00 0.00 0.00 24 1010.0
20260504184627 69 281 5.2 11.3 0.00 0.00 0.00 23 1010.0
20260504184525 69 300 5.2 12.2 0.00 0.00 0.00 22 1010.0
20260504184423 69 329 5.2 13.0 0.00 0.00 0.00 22 1009.8
20260504184323 69 283 5.2 13.0 0.00 0.00 0.00 22 1009.8
20260504184300 69 331 5.2 13.0 0.00 0.00 0.00 22 1009.8
20260504184230 69 348 4.3 13.0 0.00 0.00 0.00 22 1009.8
20260504184023 69 355 5.2 13.0 0.00 0.00 0.00 22 1009.8
20260504183907 69 355 5.2 13.0 0.00 0.00 0.00 22 1009.8
20260504183715 69 338 5.2 13.0 0.00 0.00 0.00 22 1009.8
20260504183616 69 355 5.2 13.0 0.00 0.00 0.00 22 1009.8
20260504183519 69 17 4.3 13.0 0.00 0.00 0.00 23 1010.0
20260504183310 69 22 3.5 10.4 0.00 0.00 0.00 23 1009.8
20260504183301 69 16 3.5 10.4 0.00 0.00 0.00 23 1009.8
20260504183216 69 5 3.5 10.4 0.00 0.00 0.00 23 1010.0
20260504183008 69 13 3.5 11.3 0.00 0.00 0.00 23 1010.0
20260504182904 69 42 3.5 11.3 0.00 0.00 0.00 21 1010.0
20260504182803 69 24 3.5 11.3 0.00 0.00 0.00 23 1010.0
20260504182704 69 24 3.5 11.3 0.00 0.00 0.00 22 1010.0
20260504182603 69 339 4.3 11.3 0.00 0.00 0.00 23 1010.0
20260504182502 69 339 4.3 11.3 0.00 0.00 0.00 21 1010.0
20260504182410 69 339 4.3 11.3 0.00 0.00 0.00 22 1010.0
20260504182258 69 5 5.2 11.3 0.00 0.00 0.00 21 1010.1
20260504182157 69 325 5.2 11.3 0.00 0.00 0.00 24 1010.1
20260504182056 69 17 5.2 11.3 0.00 0.00 0.00 22 1010.1
20260504181956 69 327 6.1 11.3 0.00 0.00 0.00 22 1010.1
20260504181853 69 323 6.1 13.0 0.00 0.00 0.00 22 1010.1
20260504181758 69 5 6.1 13.0 0.00 0.00 0.00 22 1010.1
20260504181753 69 355 6.1 13.0 0.00 0.00 0.00 22 1010.1
20260504181654 69 322 6.1 13.0 0.00 0.00 0.00 23 1010.1
20260504181553 69 5 6.1 13.0 0.00 0.00 0.00 23 1010.1
20260504181506 69 11 6.1 14.8 0.00 0.00 0.00 23 1010.1
20260504181351 69 321 6.1 14.8 0.00 0.00 0.00 24 1010.1
20260504181144 69 24 6.1 14.8 0.00 0.00 0.00 24 1010.2
20260504181050 69 21 6.1 14.8 0.00 0.00 0.00 23 1010.2
20260504180900 69 296 6.1 14.8 0.00 0.00 0.00 24 1010.2
20260504180739 69 332 7.0 14.8 0.00 0.00 0.00 24 1010.3
20260504180650 69 329 7.8 14.8 0.00 0.00 0.00 24 1010.3
20260504180331 69 269 7.8 13.0 0.00 0.00 0.00 23 1010.3
20260504180252 69 284 8.7 13.0 0.00 0.00 0.00 23 1010.3
20260504180231 69 290 8.7 13.0 0.00 0.00 0.00 22 1010.3
20260504180132 69 333 8.7 13.0 0.00 0.00 0.00 23 1010.3
20260504180031 69 296 8.7 13.0 0.00 0.00 0.00 23 1010.4
20260504175930 69 274 7.8 13.0 0.00 0.00 0.00 24 1010.4
20260504175854 69 277 8.7 15.6 0.00 0.00 0.00 23 1010.4
20260504175724 69 290 7.8 15.6 0.00 0.00 0.00 24 1010.4
20260504175624 69 324 7.8 15.6 0.00 0.00 0.00 24 1010.4
20260504175535 69 355 7.8 15.6 0.00 0.00 0.00 25 1010.4
20260504175240 70 333 8.7 15.6 0.00 0.00 0.00 23 1010.4
20260504175227 69 338 8.7 15.6 0.00 0.00 0.00 24 1010.4
20260504175018 70 340 8.7 15.6 0.00 0.00 0.00 23 1010.5
20260504174918 70 304 9.6 15.6 0.00 0.00 0.00 23 1010.5
20260504174834 70 324 8.7 13.9 0.00 0.00 0.00 23 1010.5
20260504174826 70 335 8.7 13.9 0.00 0.00 0.00 23 1010.5
20260504174515 70 320 8.7 13.9 0.00 0.00 0.00 23 1010.7
20260504174411 70 300 8.7 13.0 0.00 0.00 0.00 23 1010.7
20260504174307 71 265 7.8 13.0 0.00 0.00 0.00 24 1010.7
20260504174228 71 328 7.8 13.0 0.00 0.00 0.00 23 1010.7
20260504174214 71 315 7.8 13.0 0.00 0.00 0.00 23 1010.7
20260504174007 71 288 7.8 14.8 0.00 0.00 0.00 23 1010.7
20260504173906 71 319 7.8 14.8 0.00 0.00 0.00 23 1010.8
20260504173800 71 279 7.8 14.8 0.00 0.00 0.00 23 1010.8
20260504173721 71 338 8.7 14.8 0.00 0.00 0.00 24 1010.8
20260504173701 71 290 8.7 14.8 0.00 0.00 0.00 24 1010.8
20260504173601 71 261 8.7 14.8 0.00 0.00 0.00 25 1010.9
20260504173501 71 318 8.7 14.8 0.00 0.00 0.00 25 1010.9
20260504173430 71 325 9.6 14.8 0.00 0.00 0.00 24 1010.9
20260504173155 71 343 9.6 14.8 0.00 0.00 0.00 23 1011.0
20260504173055 71 336 9.6 14.8 0.00 0.00 0.00 23 1011.0
20260504172955 71 306 9.6 14.8 0.00 0.00 0.00 23 1011.0
20260504172855 71 308 8.7 14.8 0.00 0.00 0.00 23 1011.1
20260504172748 71 292 8.7 14.8 0.00 0.00 0.00 25 1011.1
20260504172710 71 279 8.7 14.8 0.00 0.00 0.00 23 1011.1
20260504172648 71 306 8.7 14.8 0.00 0.00 0.00 23 1011.1
20260504172548 71 328 8.7 14.8 0.00 0.00 0.00 23 1011.1
20260504172449 71 279 8.7 14.8 0.00 0.00 0.00 24 1011.1
20260504172348 71 304 8.7 14.8 0.00 0.00 0.00 25 1011.1
20260504172244 71 277 8.7 16.5 0.00 0.00 0.00 24 1011.1
20260504172205 71 315 8.7 16.5 0.00 0.00 0.00 24 1011.1
20260504172145 70 284 8.7 16.5 0.00 0.00 0.00 24 1011.1
20260504172046 70 263 8.7 16.5 0.00 0.00 0.00 24 1011.1
20260504171944 70 282 8.7 16.5 0.00 0.00 0.00 23 1011.1
20260504171842 70 309 8.7 16.5 0.00 0.00 0.00 24 1011.1
20260504171747 70 304 8.7 16.5 0.00 0.00 0.00 24 1011.3
20260504171740 70 259 8.7 16.5 0.00 0.00 0.00 24 1011.3
20260504171537 70 294 8.7 16.5 0.00 0.00 0.00 24 1011.3
20260504171443 70 306 9.6 16.5 0.00 0.00 0.00 24 1011.3
20260504171231 70 346 8.7 17.4 0.00 0.00 0.00 24 1011.3
20260504171152 70 331 8.7 17.4 0.00 0.00 0.00 25 1011.3
20260504171131 70 301 8.7 17.4 0.00 0.00 0.00 25 1011.3
20260504171031 69 319 8.7 17.4 0.00 0.00 0.00 24 1011.4
20260504170932 69 284 8.7 17.4 0.00 0.00 0.00 25 1011.4
20260504170830 69 289 8.7 17.4 0.00 0.00 0.00 25 1011.3
20260504170728 69 244 8.7 17.4 0.00 0.00 0.00 24 1011.4
20260504170645 69 278 8.7 17.4 0.00 0.00 0.00 24 1011.4
20260504170624 69 300 8.7 17.4 0.00 0.00 0.00 24 1011.4
20260504170525 69 291 8.7 17.4 0.00 0.00 0.00 24 1011.3
20260504170425 69 308 8.7 17.4 0.00 0.00 0.00 24 1011.3
20260504170325 69 318 8.7 17.4 0.00 0.00 0.00 24 1011.4
20260504170219 69 304 7.8 17.4 0.00 0.00 0.00 25 1011.3
20260504170140 69 345 8.7 15.6 0.00 0.00 0.00 26 1011.4
20260504170118 69 323 8.7 15.6 0.00 0.00 0.00 26 1011.4
20260504160312 64 252 7.8 13.0 0.00 0.00 0.00 29 1012.0
20260504160213 64 244 7.8 13.0 0.00 0.00 0.00 28 1012.1
20260504151122 63 203 0.9 3.5 0.00 0.00 0.00 30 1012.1
20260504150928 63 211 0.9 3.5 0.00 0.00 0.00 28 1012.1
20260504150915 63 211 0.9 3.5 0.00 0.00 0.00 30 1012.1
20260504150814 63 240 0.9 3.5 0.00 0.00 0.00 29 1012.1
20260504150713 63 284 1.7 3.5 0.00 0.00 0.00 31 1012.1
20260504150611 63 177 1.7 3.5 0.00 0.00 0.00 30 1012.1
20260504150511 63 253 1.7 5.2 0.00 0.00 0.00 31 1012.2
20260504150422 63 253 1.7 6.1 0.00 0.00 0.00 31 1012.2
20260504150416 63 253 1.7 6.1 0.00 0.00 0.00 29 1012.2
20260504150207 63 253 2.6 6.1 0.00 0.00 0.00 30 1012.1
20260504150104 63 255 2.6 6.1 0.00 0.00 0.00 29 1012.2